TimeCST,TemperatureF,Dew PointF,Humidity,Sea Level PressureIn,VisibilityMPH,Wind Direction,Wind SpeedMPH,Gust SpeedMPH,PrecipitationIn,Events,Conditions,WindDirDegrees,DateUTC
12:34 AM,35.6,28.4,75,30.08,10.0,Variable,4.6,-,N/A,,Overcast,0,2013-11-10 06:34:00
12:53 AM,36.0,28.0,73,30.13,10.0,Variable,6.9,16.1,N/A,,Overcast,0,2013-11-10 06:53:00
1:53 AM,36.0,27.0,70,30.17,10.0,WNW,8.1,-,N/A,,Overcast,300,2013-11-10 07:53:00
2:24 AM,35.6,28.4,75,30.13,10.0,Variable,5.8,-,N/A,,Overcast,0,2013-11-10 08:24:00
2:53 AM,35.1,28.0,76,30.19,10.0,WNW,8.1,-,N/A,,Overcast,300,2013-11-10 08:53:00
3:53 AM,35.1,27.0,72,30.22,10.0,Variable,4.6,-,N/A,,Overcast,0,2013-11-10 09:53:00
4:53 AM,35.1,26.1,70,30.24,10.0,Variable,4.6,-,N/A,,Overcast,0,2013-11-10 10:53:00
5:53 AM,32.0,25.0,75,30.27,10.0,West,3.5,-,N/A,,Clear,280,2013-11-10 11:53:00
6:51 AM,30.2,26.6,86,30.25,10.0,Calm,Calm,-,N/A,,Overcast,0,2013-11-10 12:51:00
6:53 AM,30.9,26.1,82,30.30,10.0,Calm,Calm,-,N/A,,Overcast,0,2013-11-10 12:53:00
7:53 AM,30.9,27.0,85,30.28,10.0,Calm,Calm,-,N/A,,Mostly Cloudy,0,2013-11-10 13:53:00
8:10 AM,32.0,28.4,87,30.23,10.0,Calm,Calm,-,N/A,,Scattered Clouds,0,2013-11-10 14:10:00
8:53 AM,35.1,26.1,70,30.29,10.0,Variable,6.9,-,N/A,,Mostly Cloudy,0,2013-11-10 14:53:00
9:53 AM,35.1,26.1,70,30.31,10.0,Variable,5.8,-,N/A,,Overcast,0,2013-11-10 15:53:00
10:51 AM,37.4,24.8,60,30.25,10.0,Variable,4.6,-,N/A,,Scattered Clouds,0,2013-11-10 16:51:00
10:53 AM,37.9,25.0,60,30.30,10.0,Variable,3.5,-,N/A,,Scattered Clouds,0,2013-11-10 16:53:00
11:53 AM,39.9,25.0,55,30.25,10.0,Variable,5.8,-,N/A,,Clear,0,2013-11-10 17:53:00
12:53 PM,42.1,24.1,49,30.22,10.0,West,8.1,-,N/A,,Clear,260,2013-11-10 18:53:00
1:53 PM,42.1,24.1,49,30.20,10.0,Variable,6.9,16.1,N/A,,Clear,0,2013-11-10 19:53:00
2:53 PM,41.0,23.0,49,30.19,10.0,SW,9.2,16.1,N/A,,Clear,230,2013-11-10 20:53:00
3:53 PM,39.9,24.1,53,30.17,10.0,SW,5.8,-,N/A,,Clear,220,2013-11-10 21:53:00
4:53 PM,37.9,24.1,57,30.16,10.0,Variable,5.8,-,N/A,,Clear,0,2013-11-10 22:53:00
5:53 PM,37.9,25.0,60,30.15,10.0,SW,5.8,-,N/A,,Overcast,230,2013-11-10 23:53:00
6:53 PM,37.9,26.1,62,30.14,10.0,SW,5.8,-,N/A,,Overcast,220,2013-11-11 00:53:00
7:53 PM,37.9,25.0,60,30.13,10.0,WSW,5.8,-,N/A,,Overcast,240,2013-11-11 01:53:00
8:53 PM,37.0,25.0,62,30.12,10.0,Variable,4.6,-,N/A,,Overcast,0,2013-11-11 02:53:00
9:53 PM,36.0,26.1,67,30.12,7.0,WSW,3.5,-,0.00,Snow,Light Snow,250,2013-11-11 03:53:00
10:53 PM,34.0,28.0,79,30.11,9.0,Variable,5.8,-,0.00,,Overcast,0,2013-11-11 04:53:00
11:53 PM,34.0,28.0,79,30.10,10.0,Variable,3.5,-,N/A,,Overcast,0,2013-11-11 05:53:00